GW6305 Weather Reports


time (UTC)temp
C
wind
direction
speed
KPH
gust
KPH
rain 1hr
cm
rain 24hr
cm
rain mn
cm
humidity
%
barometer
mb
20260504205127 22 312 0.0 1.6 0.00 0.00 0.00 32 1007.4
20260504204625 23 289 4.8 6.4 0.00 0.00 0.00 31 1007.4
20260504204124 23 46 0.0 4.8 0.00 0.00 0.00 33 1007.3
20260504203622 23 313 1.6 6.4 0.00 0.00 0.00 31 1007.3
20260504203120 23 313 8.0 11.3 0.00 0.00 0.00 31 1007.5
20260504202619 23 319 3.2 4.8 0.00 0.00 0.00 31 1007.4
20260504202116 23 73 1.6 6.4 0.00 0.00 0.00 32 1007.6
20260504201613 23 323 1.6 11.3 0.00 0.00 0.00 31 1007.7
20260504201111 23 67 1.6 6.4 0.00 0.00 0.00 31 1007.6
20260504200608 23 107 0.0 1.6 0.00 0.00 0.00 34 1007.7
20260504200104 24 286 3.2 6.4 0.00 0.00 0.00 29 1007.7
20260504195600 23 93 0.0 3.2 0.00 0.00 0.00 32 1007.8
20260504195057 23 154 3.2 6.4 0.00 0.00 0.00 32 1007.8
20260504194554 23 316 6.4 6.4 0.00 0.00 0.00 32 1007.9
20260504194049 22 153 0.0 9.7 0.00 0.00 0.00 34 1008.0
20260504193546 23 327 3.2 6.4 0.00 0.00 0.00 31 1007.8
20260504193045 22 4 1.6 6.4 0.00 0.00 0.00 34 1007.9
20260504192543 22 141 3.2 9.7 0.00 0.00 0.00 32 1008.0
20260504192040 22 332 6.4 11.3 0.00 0.00 0.00 33 1008.0
20260504191538 22 317 4.8 14.5 0.00 0.00 0.00 33 1008.2
20260504191034 21 133 3.2 4.8 0.00 0.00 0.00 34 1008.4
20260504190530 22 340 4.8 9.7 0.00 0.00 0.00 32 1008.1
20260504190026 22 313 3.2 6.4 0.00 0.00 0.00 33 1008.3
20260504185524 22 312 3.2 6.4 0.00 0.00 0.00 32 1008.5
20260504185020 22 293 3.2 4.8 0.00 0.00 0.00 34 1008.3
20260504184515 22 12 1.6 1.6 0.00 0.00 0.00 34 1008.4
20260504184011 22 281 3.2 4.8 0.00 0.00 0.00 33 1008.5
20260504183509 22 336 4.8 6.4 0.00 0.00 0.00 31 1008.4
20260504183007 22 313 3.2 9.7 0.00 0.00 0.00 34 1008.4
20260504182503 22 139 3.2 4.8 0.00 0.00 0.00 34 1008.6
20260504182000 22 298 3.2 6.4 0.00 0.00 0.00 31 1008.7
20260504181457 22 137 0.0 3.2 0.00 0.00 0.00 33 1008.6
20260504180956 22 306 6.4 9.7 0.00 0.00 0.00 32 1008.8
20260504180454 21 317 4.8 9.7 0.00 0.00 0.00 34 1008.6
20260504175952 21 345 11.3 14.5 0.00 0.00 0.00 33 1008.5
20260504175449 22 294 1.6 14.5 0.00 0.00 0.00 32 1008.8
20260504174947 22 342 3.2 6.4 0.00 0.00 0.00 34 1008.9
20260504174444 21 325 1.6 3.2 0.00 0.00 0.00 35 1008.8
20260504173941 21 336 3.2 6.4 0.00 0.00 0.00 33 1009.1
20260504173437 21 308 3.2 6.4 0.00 0.00 0.00 36 1008.8
20260504172936 21 316 3.2 11.3 0.00 0.00 0.00 37 1008.8
20260504172431 21 134 1.6 6.4 0.00 0.00 0.00 34 1009.0
20260504171928 20 287 8.0 9.7 0.00 0.00 0.00 34 1009.1
20260504171425 20 315 6.4 12.9 0.00 0.00 0.00 34 1009.1
20260504170922 20 276 3.2 4.8 0.00 0.00 0.00 33 1009.2
20260504170418 20 347 6.4 11.3 0.00 0.00 0.00 35 1009.3
20260504160337 18 327 1.6 3.2 0.00 0.00 0.00 37 1009.9
20260504150802 17 354 0.0 3.2 0.00 0.00 0.00 35 1010.6
20260504150258 17 308 3.2 6.4 0.00 0.00 0.00 34 1010.6
20260504141228 16 282 3.2 4.8 0.00 0.00 0.00 37 1010.7
20260504140725 16 344 4.8 12.9 0.00 0.00 0.00 37 1010.9
20260504140220 16 343 3.2 9.7 0.00 0.00 0.00 38 1010.8
20260504130649 13 88 1.6 1.6 0.00 0.00 0.00 43 1011.4
20260504130145 12 40 0.0 0.0 0.00 0.00 0.00 53 1011.2
20260504120110 5 58 0.0 0.0 0.00 0.00 0.00 78 1011.6
20260504110537 1 65 0.0 0.0 0.00 0.00 0.00 89 1011.7
20260504100453 1 164 0.0 0.0 0.00 0.00 0.00 91 1011.7
20260504081846 3 164 0.0 0.0 0.00 0.00 0.00 85 1012.0
20260504081343 3 164 0.0 0.0 0.00 0.00 0.00 85 1011.9
20260504080838 3 164 0.0 0.0 0.00 0.00 0.00 86 1012.1
20260504080336 3 164 0.0 0.0 0.00 0.00 0.00 87 1011.9
20260504070303 3 164 0.0 0.0 0.00 0.00 0.00 85 1011.8
20260504060224 4 164 0.0 0.0 0.00 0.00 0.00 79 1011.6
20260504050651 5 164 0.0 0.0 0.00 0.00 0.00 80 1011.8
20260504050148 5 164 0.0 0.0 0.00 0.00 0.00 81 1011.9
20260504045646 5 164 0.0 0.0 0.00 0.00 0.00 81 1011.6
20260504045146 5 164 0.0 0.0 0.00 0.00 0.00 80 1011.8
20260504044644 5 164 0.0 0.0 0.00 0.00 0.00 79 1012.0
20260504044140 5 164 0.0 0.0 0.00 0.00 0.00 79 1011.9
20260504043637 5 164 0.0 0.0 0.00 0.00 0.00 78 1011.8
20260504043135 5 164 0.0 0.0 0.00 0.00 0.00 78 1011.7
20260504042632 5 164 0.0 0.0 0.00 0.00 0.00 79 1011.5
20260504042128 5 164 0.0 0.0 0.00 0.00 0.00 79 1011.9
20260504041624 6 164 0.0 0.0 0.00 0.00 0.00 81 1011.6
20260504041120 6 164 0.0 0.0 0.00 0.00 0.00 80 1011.7
20260504040618 6 164 0.0 0.0 0.00 0.00 0.00 77 1011.7
20260504040114 6 164 0.0 0.0 0.00 0.00 0.00 79 1011.6
20260504035611 6 164 0.0 0.0 0.00 0.00 0.00 79 1011.5
20260504035108 6 164 0.0 0.0 0.00 0.00 0.00 77 1011.6
20260504034606 6 164 0.0 0.0 0.00 0.00 0.00 78 1011.6
20260504034102 6 164 0.0 0.0 0.00 0.00 0.00 78 1011.5
20260504033600 6 164 0.0 0.0 0.00 0.00 0.00 76 1011.5
20260504033057 6 164 0.0 0.0 0.00 0.00 0.00 75 1011.6
20260504032554 6 164 0.0 0.0 0.00 0.00 0.00 73 1011.5
20260504032051 6 164 0.0 0.0 0.00 0.00 0.00 75 1011.4
20260504031548 7 164 0.0 0.0 0.00 0.00 0.00 73 1011.4
20260504031044 7 164 0.0 0.0 0.00 0.00 0.00 74 1011.5
20260504030542 7 164 0.0 0.0 0.00 0.00 0.00 73 1011.4
20260504030037 7 164 0.0 0.0 0.00 0.00 0.00 72 1011.3
20260504025535 7 164 0.0 0.0 0.00 0.00 0.00 60 1011.2
20260504025031 7 164 0.0 0.0 0.00 0.00 0.00 58 1011.4
20260504024529 7 164 0.0 0.0 0.00 0.00 0.00 58 1011.4
20260504024025 7 164 0.0 0.0 0.00 0.00 0.00 58 1011.4
20260504023522 7 164 0.0 0.0 0.00 0.00 0.00 55 1011.5
20260504023018 8 164 0.0 0.0 0.00 0.00 0.00 55 1011.4
20260504022514 8 164 0.0 0.0 0.00 0.00 0.00 55 1011.5
20260504022011 8 164 0.0 0.0 0.00 0.00 0.00 55 1011.5
20260504021509 8 164 0.0 0.0 0.00 0.00 0.00 55 1011.6
20260504021006 8 164 0.0 0.0 0.00 0.00 0.00 55 1011.6
20260504020502 8 164 0.0 0.0 0.00 0.00 0.00 54 1011.4
20260504015958 8 164 0.0 0.0 0.00 0.00 0.00 53 1011.5
20260504015454 8 164 0.0 0.0 0.00 0.00 0.00 53 1011.3
20260504014950 8 164 0.0 0.0 0.00 0.00 0.00 52 1011.5
20260504014447 8 164 0.0 0.0 0.00 0.00 0.00 53 1011.4
20260504013943 8 164 0.0 0.0 0.00 0.00 0.00 53 1011.2
20260504013442 8 164 0.0 0.0 0.00 0.00 0.00 53 1011.4
20260504012938 9 164 0.0 0.0 0.00 0.00 0.00 51 1011.2
20260504012436 9 164 0.0 0.0 0.00 0.00 0.00 51 1011.3
20260504011933 9 164 0.0 0.0 0.00 0.00 0.00 51 1010.9
20260504011430 9 164 0.0 0.0 0.00 0.00 0.00 51 1011.2
20260504010926 9 164 0.0 0.0 0.00 0.00 0.00 50 1011.0
20260504010422 9 164 0.0 0.0 0.00 0.00 0.00 50 1010.8
20260504005918 9 164 0.0 0.0 0.00 0.00 0.00 48 1011.1
20260504005415 9 164 0.0 0.0 0.00 0.00 0.00 50 1010.9
20260504004913 10 164 0.0 0.0 0.00 0.00 0.00 50 1010.8
20260504004410 10 164 0.0 0.0 0.00 0.00 0.00 50 1010.8
20260504003907 10 164 0.0 0.0 0.00 0.00 0.00 48 1010.9
20260504003403 10 164 0.0 0.0 0.00 0.00 0.00 47 1010.7
20260504002900 10 164 0.0 0.0 0.00 0.00 0.00 45 1010.9
20260504002357 11 164 0.0 0.0 0.00 0.00 0.00 45 1010.9
20260504001855 11 164 0.0 0.0 0.00 0.00 0.00 46 1010.5
20260504001352 11 164 0.0 0.0 0.00 0.00 0.00 45 1010.6
20260504000848 11 164 0.0 0.0 0.00 0.00 0.00 42 1010.6
20260504000346 11 164 0.0 0.0 0.00 0.00 0.00 41 1010.7
20260503235843 11 159 0.0 0.0 0.00 0.00 0.00 43 1010.7
20260503235341 12 159 0.0 0.0 0.00 0.00 0.00 41 1010.5
20260503234838 12 159 0.0 0.0 0.00 0.00 0.00 41 1010.5
20260503234336 12 263 1.6 1.6 0.00 0.00 0.00 39 1010.4
20260503233833 12 263 0.0 3.2 0.00 0.00 0.00 37 1010.3
20260503233329 12 329 0.0 3.2 0.00 0.00 0.00 36 1010.4
20260503232825 12 265 0.0 1.6 0.00 0.00 0.00 37 1010.3
20260503232323 13 310 3.2 3.2 0.00 0.00 0.00 36 1010.1
20260503231821 13 334 1.6 4.8 0.00 0.00 0.00 36 1010.1
20260503231318 13 270 1.6 4.8 0.00 0.00 0.00 35 1010.4
20260503230813 13 304 1.6 4.8 0.00 0.00 0.00 35 1010.1
20260503230311 13 59 0.0 9.7 0.00 0.00 0.00 36 1010.1
20260503225808 13 93 1.6 3.2 0.00 0.00 0.00 35 1010.3
20260503225304 13 325 3.2 3.2 0.00 0.00 0.00 36 1010.0
20260503224800 13 351 4.8 6.4 0.00 0.00 0.00 34 1009.9
20260503224258 13 353 1.6 6.4 0.00 0.00 0.00 35 1010.3
20260503223755 13 352 3.2 3.2 0.00 0.00 0.00 35 1009.9
20260503223253 13 332 4.8 11.3 0.00 0.00 0.00 34 1010.0
20260503222749 14 353 4.8 6.4 0.00 0.00 0.00 33 1009.9
20260503222247 14 334 3.2 6.4 0.00 0.00 0.00 34 1010.0
20260503221745 14 346 4.8 11.3 0.00 0.00 0.00 33 1010.1
20260503221243 13 300 3.2 9.7 0.00 0.00 0.00 34 1010.1
20260503220739 13 349 3.2 11.3 0.00 0.00 0.00 34 1009.9
20260503220236 13 294 1.6 4.8 0.00 0.00 0.00 34 1010.0
20260503215732 13 344 6.4 9.7 0.00 0.00 0.00 33 1010.1
20260503215230 13 250 4.8 9.7 0.00 0.00 0.00 33 1010.1
20260503214728 14 356 4.8 6.4 0.00 0.00 0.00 33 1010.1
20260503214224 14 8 6.4 6.4 0.00 0.00 0.00 33 1010.0
20260503213722 15 311 1.6 9.7 0.00 0.00 0.00 33 1009.8
20260503213219 15 277 6.4 6.4 0.00 0.00 0.00 32 1009.6
20260503212716 15 359 6.4 6.4 0.00 0.00 0.00 33 1009.8
20260503212214 14 342 4.8 6.4 0.00 0.00 0.00 33 1009.7
20260503211711 15 331 4.8 6.4 0.00 0.00 0.00 33 1009.7
20260503211207 15 153 3.2 6.4 0.00 0.00 0.00 33 1009.8
20260503210703 14 2 1.6 3.2 0.00 0.00 0.00 34 1009.6
20260503210200 14 6 3.2 20.9 0.00 0.00 0.00 32 1009.5
20260503205655 15 349 3.2 6.4 0.00 0.00 0.00 32 1009.5
20260503205152 15 301 3.2 11.3 0.00 0.00 0.00 32 1009.7